Regional Weather Roundup
Issued by NWS

Home | Current Version | Previous Version | Text Only | Print | Product List | Glossary On
Versions: 1 2 3 4 5 6 7 8 9 10 11 12 13 14 15 16 17 18 19 20 21 22 23 24 25 26 27 28 29 30 31 32 33 34 35 36 37 38 39 40 41 42 43 44 45 46 47 48 49 50
000
ASUS44 KJAN 302310
RWRMS

MISSISSIPPI HOURLY WEATHER ROUNDUP
NATIONAL WEATHER SERVICE JACKSON MS
600 PM CDT SAT APR 30 2016

NOTE: "FAIR: INDICATES FEW OR NO CLOUDS BELOW 12,000 FEET WITH NO
SIGNIFICANT WEATHER AND/OR OBSTRUCTIONS TO VISIBILITY.

MSZ001>002-007>008-010>013-018>021-025>028-034>036-010000-
NORTHWEST MISSISSIPPI

CITY           SKY/WX    TMP DP  RH WIND       PRES   REMARKS
BATESVILLE     FAIR      73  65  77 SE5       29.80R
CLEVELAND      FAIR      75  71  87 SE9G16    29.77R
GREENWOOD      PTSUNNY   77  69  76 S9        29.77R
GREENVILLE     MOSUNNY   76  67  73 SE14      29.76R
OLIVE BRANCH   PTSUNNY   73  68  83 SW5       29.81R
OXFORD         FAIR      70  63  78 SE8       29.82R
TUNICA         MOCLDY    73  63  68 W3        29.80S
WINONA         MOCLDY    75  68  79 S8        29.79R
$$

MSZ003>006-009-014>017-022>024-029>033-037>039-010000-
NORTHEAST MISSISSIPPI

CITY           SKY/WX    TMP DP  RH WIND       PRES   REMARKS
COLUMBUS AFB   PTSUNNY   74  70  86 S10       29.78F
CORINTH        CLOUDY    70  66  88 SE13      29.79F
GOLDN TRIANGLE PTSUNNY   75  64  69 S16G32    29.77F
STARKVILLE     FAIR      72  68  88 SW3       29.80R
TUPELO         CLOUDY    73  67  81 E5        29.81S
$$

MSZ040-058-010000-
CENTRAL MISSISSIPPI

CITY           SKY/WX    TMP DP  RH WIND       PRES   REMARKS
JACKSON INTL   MOSUNNY   73  64  73 SE15G23   29.78R
JACKSON HAWKNS CLOUDY    73  64  73 SE13G20   29.78R
MADISON        FAIR      72  64  78 SE5       29.78S
MERIDIAN KEY   CLOUDY    69  66  90 SE13      29.84F
MERIDIAN NAS   CLOUDY    73  70  90 SE12      29.83F THUNDER
VICKSBURG TVR  SUNNY     78  64  61 S13G20    29.75S
VICKSBURG VKS  CLEAR     77  64  65 SE6G15    29.76R
$$

MSZ059>079-010000-
SOUTH MISSISSIPPI

CITY           SKY/WX    TMP DP  RH WIND       PRES   REMARKS
BROOKHAVEN     FAIR     N/A N/A N/A S12G22    29.79R
COLUMBIA       FAIR      70  63  78 S5G14     29.80R
HATTIESBURG    RAIN      68  64  87 SE24      29.84F
MCCOMB         CLOUDY    71  67  87 SE14      29.79S
NATCHEZ        SUNNY     75  64  69 S12       29.77R
PINE BELT      CLOUDY    64  61  88 SE20G29   29.76F
$$

MSZ080>082-010000-
COASTAL MISSISSIPPI

CITY           SKY/WX    TMP DP  RH WIND       PRES   REMARKS
BAY ST LOUIS   TSTM      66  63  88 SE8       29.90R
BILOXI         TSTM      75  75 100 VRB5      29.90R
PASCAGOULA     CLOUDY    76  73  91 SE7       29.89F
GULFPORT       RAIN      69  67  93 NW13      29.91R FOG
$$




USA.gov is the U.S. government's official web portal to all federal, state and local government web resources and services.